CAPE
0 0 0 0 0 0 0 0 0 0 0 0 0 0 0 0 0 0 0 0 0 0 0 0 0 0 0 0 0 0 0 0 0 0 0 0 0 0 0 0 0 0 0 0
0 0 0 0 0 0 0 0 0 0 0 0 0 0 0 0 0 0 0 0 0 0 0 0 0 0 0 0 0 0 0 0 0 0 0 0 0 0 0 0 0 0 0 0
0 0 0 0 0 0 0 0 0 0 0 0 0 0 0 0 0 0 0 0 0 0 0 0 0 0 0 0 0 0 0 0 0 0 0 0 0 0 0 0 0 0 0 0
0 0 0 0 0 0 0 0 0 0 0 0 0 0 0 0 0 0 0 0 0 0 0 0 0 0 0 0 0 0 0 0 0 0 0 0 0 0 0 0 0 0 0 0
0 0 0 0 0 0 0 0 0 0 0 0 0 0 0 0 0 0 0 0 0 0 0 0 0 0 0 0 0 0 0 0 0 0 0 0 0 0 0 0 0 0 0 0
0 0 0 0 0 0 0 0 0 0 0 0 0 0 0 0 0 0 0 0 0 0 0 0 0 0 0 0 0 0 0 0 0 0 0 0 0 0 0 0 0 0 0 0
1 0 0 0 0 0 0 0 0 0 0 0 0 0 0 0 0 0 0 0 0 0 0 0 0 0 0 0 0 0 0 0 0 0 0 0 0 0 0 0 0 0 0 0
0 0 0 0 0 0 1 0 0 0 0 0 0 0 0 0 0 0 0 0 0 0 0 0 0 0 0 0 0 0 0 0 0 0 0 0 0 0 0 0 0 0 0 0
0 0 0 0 0 0 1 2 0 0 0 0 0 0 0 0 0 0 0 0 0 0 0 0 0 0 0 0 0 0 0 0 0 0 0 0 0 0 0 0 0 0 0 0
0 0 0 0 0 0 0 0 0 0 0 0 0 0 0 0 0 0 0 0 0 0 0 0 0 0 0 0 0 0 0 0 0 0 0 0 0 0 0 0 0 0 0 0
0 0 0 0 0 0 0 3 0 0 0 0 0 0 0 0 0 0 0 0 0 0 0 0 0 0 0 0 0 0 0 0 0 0 0 0 0 0 0 0 0 0 0 0
2 14 2 0 0 0 0 0 5 3 0 0 0 0 0 0 0 0 0 0 0 0 0 0 0 0 0 0 0 0 0 0 0 0 0 0 0 0 0 0 0 0 0 0
6 13 2 1 0 0 0 0 0 0 0 0 0 0 0 0 0 0 0 0 0 0 0 0 0 0 0 0 0 0 0 0 0 0 0 0 0 0 0 0 0 0 0 0
0 5 0 0 0 0 0 0 0 0 0 0 0 0 0 0 0 0 0 0 0 0 0 0 0 0 0 0 0 0 0 0 0 0 0 0 0 0 0 0 0 0 0 0
0 0 0 0 0 0 0 0 0 0 0 2 0 0 0 0 0 0 0 0 0 0 0 0 0 0 0 0 0 0 0 0 0 0 0 0 0 0 0 0 0 0 0 0
0 0 0 2 1 0 0 0 0 0 0 0 0 0 0 0 0 0 0 0 0 0 0 0 0 0 0 0 0 0 0 0 0 0 0 0 0 0 0 0 0 0 0 0
0 0 0 0 0 0 0 0 0 0 0 0 0 0 0 0 0 0 0 0 0 0 0 0 0 0 0 0 0 0 0 0 0 0 0 0 0 0 0 0 0 0 0 0
0 0 0 0 0 0 0 0 0 0 0 0 0 0 0 0 0 0 0 0 0 0 0 0 0 0 0 0 0 0 0 0 0 0 0 0 0 0 0 0 0 0 0 0
0 0 0 0 0 0 0 0 0 0 0 0 0 0 0 0 0 0 0 0 0 0 0 0 0 0 0 0 0 0 0 0 0 0 0 0 0 0 0 0 0 0 0 0
0 0 0 0 0 0 0 0 0 0 0 0 0 0 0 0 0 0 0 0 0 0 0 0 0 0 0 0 0 0 0 0 0 0 0 0 0 0 0 0 0 0 0 0
0 1 0 0 0 0 0 0 0 0 0 0 0 0 0 0 0 0 0 0 0 0 0 0 0 0 0 0 0 0 0 0 0 0 0 0 0 0 0 0 0 0 0 0
0 0 0 0 0 0 0 0 0 0 0 0 0 0 0 0 0 0 0 0 0 0 0 0 0 0 0 0 0 0 0 0 0 0 0 0 0 0 0 0 0 0 0 0
0 0 0 0 0 0 0 0 0 0 0 0 0 0 0 0 0 0 0 0 0 0 0 0 0 0 0 0 0 0 0 0 0 0 0 0 0 0 0 0 0 0 0 0
0 0 0 0 0 0 0 0 0 0 0 0 0 0 0 0 0 0 0 0 0 0 0 0 0 0 0 0 0 0 0 0 0 0 0 0 0 0 0 0 0 0 0 0
0 0 0 0 0 0 0 0 0 0 0 0 0 0 0 0 0 0 0 0 0 0 0 0 0 0 0 0 0 0 0 0 0 0 0 0 0 0 0 0 0 0 0 0
0 0 0 0 0 0 0 0 0 0 0 0 0 0 0 0 0 0 0 0 0 0 0 0 0 0 0 0 0 0 0 0 0 0 0 0 0 0 0 0 0 0 0 0
CIN
-0 -0 -0 -0 -0 -0 -0 -0 -0 -0 -0 -0 -0 -0 -0 -0 -0 -0 -0 -0 -0 -0 -0 -0 -0 -0 -0 -0 -0 -0 -0 -0 -0 -0 -0 -0 -0 -0 -0 -0 -0 -0 -0 -0
-0 -0 -0 -0 -0 -0 -0 -0 -0 -0 -0 -0 -0 -0 -0 -0 -0 -0 -0 -0 -0 -0 -0 -0 -0 -0 -0 -0 -0 -0 -0 -0 -0 -0 -0 -0 -0 -0 -0 -0 -0 -0 -0 -0
-0 -0 -0 -0 -0 -0 -0 -0 -0 -0 -0 -0 -0 -0 -0 -0 -0 -0 -0 -0 -0 -0 -0 -0 -0 -0 -0 -0 -0 -0 -0 -0 -0 -0 -0 -0 -0 -0 -0 -0 -0 -0 -0 -0
-0 -0 -0 -0 -0 -0 -0 -0 -0 -0 -0 -0 -0 -0 -0 -0 -0 -0 -0 -0 -0 -0 -0 -0 -0 -0 -0 -0 -0 -0 -0 -0 -0 -0 -0 -0 -0 -0 -0 -0 -0 -0 -0 -0
-0 -0 -0 -0 -0 -0 -0 -0 -0 -0 -0 -0 -0 -0 -0 -0 -0 -0 -0 -0 -0 -0 -0 -0 -0 -0 -0 -0 -0 -0 -0 -0 -0 -0 -0 -0 -0 -0 -0 -0 -0 -0 -0 -0
-0 -0 -0 -0 -0 -0 -0 -0 -0 -0 -0 -0 -0 -0 -0 -0 -0 -0 -0 -0 -0 -0 -0 -0 -0 -0 -0 -0 -0 -0 -0 -0 -0 -0 -0 -0 -0 -0 -0 -0 -0 -0 -0 -0
-0 -0 -0 -0 -0 -0 -0 -0 -0 -0 -0 -0 -0 -0 -0 -0 -0 -0 -0 -0 -0 -0 -0 -0 -0 -0 -0 -0 -0 -0 -0 -0 -0 -0 -0 -0 -0 -0 -0 -0 -0 -0 -0 -0
-0 -0 -0 -0 -0 -0 -0 -0 -0 -0 -0 -0 -0 -0 -0 -0 -0 -0 -0 -0 -0 -0 -0 -0 -0 -0 -0 -0 -0 -0 -0 -0 -0 -0 -0 -0 -0 -0 -0 -0 -0 -0 -0 -0
-0 -0 -0 -0 -0 -0 -2 -0 -0 -0 -0 -0 -0 -0 -0 -0 -0 -0 -0 -0 -0 -0 -0 -0 -0 -0 -0 -0 -0 -0 -0 -0 -0 -0 -0 -0 -0 -0 -0 -0 -0 -0 -0 -0
-0 -0 -0 -0 -0 -0 -0 -0 -0 -0 -0 -0 -0 -0 -0 -0 -0 -0 -0 -0 -0 -0 -0 -0 -0 -0 -0 -0 -0 -0 -0 -0 -0 -0 -0 -0 -0 -0 -0 -0 -0 -0 -0 -0
-2 -9 -0 -0 -0 -0 -0 -1 -1 -0 -0 -0 -0 -0 -0 -0 -0 -0 -0 -0 -0 -0 -0 -0 -0 -0 -0 -0 -0 -0 -0 -0 -0 -0 -0 -0 -0 -0 -0 -0 -0 -0 -0 -0
-7 -6 -5 -0 -0 -0 -0 -0 -17 -9 -0 -0 -0 -0 -0 -0 -0 -0 -0 -0 -0 -0 -0 -0 -0 -0 -0 -0 -0 -0 -0 -0 -0 -0 -0 -0 -0 -0 -0 -0 -0 -0 -0 -0
-6 -0 -1 -3 -0 -0 -0 -0 -0 -0 -0 -0 -0 -0 -0 -0 -0 -0 -0 -0 -0 -0 -0 -0 -0 -0 -0 -0 -0 -0 -0 -0 -0 -0 -0 -0 -0 -0 -0 -0 -0 -0 -0 -0
-0 -1 -1 -0 -0 -0 -0 -0 -0 -0 -0 -0 -0 -0 -0 -0 -0 -0 -0 -0 -0 -0 -0 -0 -0 -0 -0 -0 -0 -0 -0 -0 -0 -0 -0 -0 -0 -0 -0 -0 -0 -0 -0 -0
-0 -0 -0 -0 -0 -0 -0 -0 -0 -0 -0 -4 -0 -0 -0 -0 -0 -0 -0 -0 -0 -0 -0 -0 -0 -0 -0 -0 -0 -0 -0 -0 -0 -0 -0 -0 -0 -0 -0 -0 -0 -0 -0 -0
-2 -0 -0 -9 -2 -0 -0 -0 -0 -0 -0 -0 -0 -0 -0 -0 -0 -0 -0 -0 -0 -0 -0 -0 -0 -0 -0 -0 -0 -0 -0 -0 -0 -0 -0 -0 -0 -0 -0 -0 -0 -0 -0 -0
-0 -0 -0 -0 -0 -0 -0 -0 -0 -0 -0 -0 -0 -0 -0 -0 -0 -0 -0 -0 -0 -0 -0 -0 -0 -0 -0 -0 -0 -0 -0 -0 -0 -0 -0 -0 -0 -0 -0 -0 -0 -0 -0 -0
-0 -0 -0 -0 -0 -0 -0 -0 -0 -0 -0 -0 -0 -0 -0 -0 -0 -0 -0 -0 -0 -0 -0 -0 -0 -0 -0 -0 -0 -0 -0 -0 -0 -0 -0 -0 -0 -0 -0 -0 -0 -0 -0 -0
-0 -0 -0 -0 -0 -0 -0 -0 -0 -0 -0 -0 -0 -0 -0 -0 -0 -0 -0 -0 -0 -0 -0 -0 -0 -0 -0 -0 -0 -0 -0 -0 -0 -0 -0 -0 -0 -0 -0 -0 -0 -0 -0 -0
-0 -0 -0 -0 -0 -0 -0 -0 -0 -0 -0 -0 -0 -0 -0 -0 -0 -0 -0 -0 -0 -0 -0 -0 -0 -0 -0 -0 -0 -0 -0 -0 -0 -0 -0 -0 -0 -0 -0 -0 -0 -0 -0 -0
-0 -0 -0 -0 -0 -0 -0 -0 -0 -0 -0 -0 -0 -0 -0 -0 -0 -0 -0 -0 -0 -0 -0 -0 -0 -0 -0 -0 -0 -0 -0 -0 -0 -0 -0 -0 -0 -0 -0 -0 -0 -0 -0 -0
-0 -0 -0 -0 -0 -0 -0 -0 -0 -0 -0 -0 -0 -0 -0 -0 -0 -0 -0 -0 -0 -0 -0 -0 -0 -0 -0 -0 -0 -0 -0 -0 -0 -0 -0 -0 -0 -0 -0 -0 -0 -0 -0 -0
-0 -0 -0 -0 -0 -0 -0 -0 -0 -0 -0 -0 -0 -0 -0 -0 -0 -0 -0 -0 -0 -0 -0 -0 -0 -0 -0 -0 -0 -0 -0 -0 -0 -0 -0 -0 -0 -0 -0 -0 -0 -0 -0 -0
-0 -0 -0 -0 -0 -0 -0 -0 -0 -0 -0 -0 -0 -0 -0 -0 -0 -0 -0 -0 -0 -0 -0 -0 -0 -0 -0 -0 -0 -0 -0 -0 -0 -0 -0 -0 -0 -0 -0 -0 -0 -0 -0 -0
-0 -0 -0 -0 -0 -0 -0 -0 -0 -0 -0 -0 -0 -0 -0 -0 -0 -0 -0 -0 -0 -0 -0 -0 -0 -0 -0 -0 -0 -0 -0 -0 -0 -0 -0 -0 -0 -0 -0 -0 -0 -0 -0 -0
-0 -0 -0 -0 -0 -0 -0 -0 -0 -0 -0 -0 -0 -0 -0 -0 -0 -0 -0 -0 -0 -0 -0 -0 -0 -0 -0 -0 -0 -0 -0 -0 -0 -0 -0 -0 -0 -0 -0 -0 -0 -0 -0 -0
Wind_Speed
24 30 36 35 32 29 28 29 30 28 28 29 31 33 37 31 30 33 35 35 36 35 36 33 31 29 29 26 24 21 20 19 19 20 21 22 22 24 26 27 27 27 27 27
28 38 33 30 31 30 30 33 34 31 28 29 35 40 37 36 35 34 37 40 40 39 41 40 36 34 31 29 25 23 21 20 21 22 23 24 24 26 28 29 30 29 29 29
31 29 28 28 30 34 34 36 33 35 32 30 38 48 41 39 36 36 37 38 38 39 42 42 39 37 33 31 26 24 23 22 22 22 24 25 27 29 31 31 30 28 29 29
30 28 25 28 33 31 40 31 31 35 37 43 31 55 42 36 38 37 39 38 38 37 37 38 37 36 34 31 26 23 22 22 22 22 23 24 28 32 31 30 28 28 28 27
26 26 30 29 31 26 32 25 28 31 36 39 39 44 41 31 34 37 36 35 35 34 34 35 34 33 32 28 24 22 22 23 23 24 25 26 28 29 30 29 29 28 27 27
23 20 22 26 22 19 19 22 25 27 30 46 40 41 43 35 32 30 25 24 29 32 31 30 29 30 30 27 24 20 21 22 22 23 24 25 28 28 27 27 28 28 28 27
25 28 22 21 22 23 22 23 33 39 41 47 34 39 44 33 30 30 35 36 33 32 32 32 31 30 28 25 22 21 22 23 21 22 23 24 25 25 26 27 27 28 27 27
31 33 27 23 24 25 25 27 38 46 47 47 35 46 40 29 29 31 31 32 32 32 31 30 28 27 26 23 21 21 21 22 22 23 24 24 25 27 27 26 26 26 27 27
23 27 20 21 22 20 27 32 25 31 34 42 39 40 41 39 38 33 30 28 28 27 28 26 25 25 25 24 22 21 22 23 24 25 26 27 27 27 27 27 27 27 27 27
22 27 21 20 20 22 23 19 30 29 40 46 42 42 40 29 29 30 25 26 27 26 26 24 25 26 26 25 24 23 23 25 26 27 27 28 28 28 28 28 30 30 30 29
23 26 25 20 25 24 23 26 25 26 30 38 43 40 26 24 21 19 22 24 25 25 25 25 28 29 29 28 26 26 26 27 28 28 29 29 29 29 29 31 31 31 31 31
26 26 33 30 24 25 26 25 24 31 34 33 38 49 29 27 25 30 33 29 26 26 27 32 33 34 34 33 32 31 31 32 32 31 31 31 32 31 32 33 33 32 33 32
20 27 33 31 31 30 32 31 29 30 30 40 38 39 22 20 24 27 30 30 30 32 37 40 40 40 37 36 35 34 33 34 34 33 33 33 34 34 34 34 33 32 32 32
19 24 28 34 26 24 30 32 31 31 37 39 40 47 41 38 39 38 36 36 38 39 40 40 40 40 39 38 37 37 38 37 37 37 37 38 37 37 37 36 35 34 33 33
16 25 27 32 34 30 28 28 26 31 34 37 41 43 47 42 40 42 42 41 41 42 41 40 40 40 40 41 40 39 38 38 38 38 38 38 38 38 38 38 37 36 35 34
22 28 24 26 24 25 33 38 33 32 33 36 42 48 50 45 42 42 42 41 41 42 40 40 40 40 40 40 39 40 41 41 37 38 40 39 39 39 39 39 37 36 35 34
23 26 27 36 29 31 39 34 31 36 34 33 39 40 45 48 44 40 39 37 38 39 40 39 39 38 37 37 37 40 41 41 40 40 40 40 39 39 38 37 36 37 36 34
25 26 29 36 31 45 33 22 26 30 34 31 36 40 41 42 39 34 33 35 35 33 34 34 34 35 36 37 40 41 42 42 42 41 40 39 37 38 37 36 36 36 35 35
26 26 31 37 40 42 42 34 30 28 38 28 31 31 34 36 36 35 26 25 29 31 32 33 35 37 39 41 41 43 44 43 44 44 43 42 40 38 36 36 35 34 33 34
23 26 29 34 42 50 43 26 23 24 42 23 20 24 26 26 36 29 25 31 33 33 35 37 39 39 41 43 43 46 47 47 47 47 47 45 42 40 40 36 34 30 30 32
23 25 32 35 38 42 38 29 21 34 35 22 22 23 23 26 28 28 34 34 34 35 38 39 41 43 44 45 45 47 47 49 48 47 47 46 44 43 41 39 37 33 30 29
24 25 29 29 33 45 27 21 27 28 23 23 23 24 28 30 35 37 39 38 38 40 40 41 44 45 45 45 46 48 50 49 49 50 49 48 45 42 40 39 37 36 35 35
27 23 28 25 29 26 22 23 20 19 19 24 28 30 31 35 39 42 42 40 39 39 41 41 44 46 45 45 45 49 48 47 47 47 47 45 44 41 38 37 36 36 34 34
13 5 22 25 25 27 28 25 24 24 26 28 30 33 34 37 36 37 37 39 41 41 42 42 44 45 46 44 44 43 45 45 46 47 46 44 43 42 39 36 35 33 34 34
12 6 3 6 17 27 24 22 26 27 29 31 31 30 31 33 34 35 37 38 38 38 39 40 40 41 42 41 42 42 43 43 44 44 44 44 41 40 40 37 35 32 29 27
7 15 11 11 2 4 14 22 23 32 31 30 31 30 28 30 32 32 34 34 35 37 37 38 38 39 41 41 42 42 42 42 43 44 42 42 41 39 38 38 39 34 30 26
Wind_Direction
256 252 250 250 255 261 263 264 265 270 272 274 274 274 271 279 281 281 280 280 281 283 284 290 293 297 298 298 298 299 298 297 298 298 299 299 300 304 306 307 307 306 306 306
252 251 257 257 253 258 261 261 264 271 276 278 277 274 276 278 281 281 280 280 281 283 283 285 289 292 295 298 298 297 297 297 296 296 297 299 301 304 306 307 306 306 306 306
251 261 256 255 255 253 259 260 264 268 276 281 281 274 277 279 281 283 283 284 287 286 286 287 290 292 292 293 295 297 298 297 296 296 297 298 300 302 304 305 306 305 305 306
257 259 262 257 257 257 256 264 268 269 273 271 282 271 275 282 282 285 286 288 289 292 293 294 295 296 294 293 294 294 295 296 296 296 295 295 297 299 304 305 306 306 307 307
255 258 255 260 261 261 263 263 268 271 271 273 274 276 279 284 285 289 291 294 297 300 299 299 300 301 300 299 293 294 295 298 298 296 296 297 299 303 304 304 304 306 307 308
262 272 268 263 265 265 266 269 271 274 274 268 271 274 279 281 288 293 299 305 309 309 310 310 311 312 308 305 299 296 298 302 302 300 299 299 300 302 303 304 305 306 306 306
261 261 270 270 262 263 262 258 266 267 267 269 278 274 277 285 286 291 294 299 304 309 312 312 310 312 316 312 307 301 301 302 305 304 303 305 305 305 305 306 306 306 307 307
255 260 259 263 264 264 259 260 265 267 268 273 277 271 277 287 293 294 298 302 304 309 314 316 318 317 319 318 312 307 304 303 304 304 304 306 307 306 306 307 307 307 307 308
261 263 271 267 265 262 262 262 277 275 276 273 274 278 282 284 288 294 301 307 311 313 317 323 326 327 324 320 315 310 307 305 306 305 306 305 304 304 305 306 307 307 308 309
268 267 274 271 272 269 268 268 267 271 270 270 275 277 279 287 291 297 302 310 315 316 318 323 327 328 327 323 318 313 308 306 305 304 305 305 304 304 303 304 303 304 305 306
262 265 270 269 264 263 266 266 274 275 272 275 277 278 291 289 294 301 309 318 319 319 320 321 324 324 323 319 315 312 309 306 304 304 304 304 303 303 302 302 303 303 305 305
258 266 263 264 273 272 268 269 267 271 275 277 279 277 288 290 291 296 302 310 313 317 316 315 318 318 316 313 311 307 305 304 303 303 302 302 302 302 301 301 301 302 302 303
262 264 261 267 271 272 268 267 270 275 280 273 276 282 307 297 294 302 302 307 309 310 311 309 310 311 313 313 312 310 308 305 304 302 301 301 300 300 300 300 299 299 300 301
276 267 267 264 275 282 271 268 264 266 270 275 272 279 281 288 292 295 299 304 305 305 307 309 310 311 314 314 314 312 310 308 306 303 301 299 299 299 299 299 298 298 297 298
280 272 275 273 274 280 282 279 271 264 269 274 280 281 282 289 292 293 296 298 300 303 305 308 311 312 314 315 315 315 314 312 310 307 304 302 301 299 298 296 295 295 294 294
276 276 281 279 284 283 280 273 278 280 279 280 282 282 283 289 295 295 296 299 300 302 305 308 311 314 315 317 318 318 316 315 315 311 308 307 305 302 299 297 294 293 291 291
277 276 277 273 279 286 279 280 276 278 280 283 281 286 290 290 295 299 300 302 303 305 307 309 311 314 317 319 322 320 320 319 318 315 313 310 308 305 303 300 295 291 289 289
279 279 278 276 278 271 280 295 294 288 289 287 286 290 291 292 298 304 307 307 309 311 313 314 317 319 320 321 320 320 320 319 319 317 316 315 313 310 307 302 297 293 290 286
271 277 279 275 272 278 279 287 291 293 290 297 293 294 296 298 302 307 315 319 318 317 317 318 319 319 319 319 321 320 319 319 318 316 315 313 311 310 309 307 303 298 292 288
273 271 275 278 275 272 279 282 295 303 290 307 305 303 303 307 299 308 318 319 317 318 317 317 319 321 321 321 321 318 317 317 316 315 313 312 310 307 304 303 302 303 300 293
280 279 272 276 280 282 284 284 288 281 289 307 310 307 309 306 307 313 314 317 319 318 317 318 319 319 320 320 319 317 316 315 316 316 314 312 310 306 304 302 298 295 292 294
279 281 282 281 283 282 293 285 274 288 293 296 307 309 309 309 307 309 311 315 316 316 318 319 318 318 319 320 319 317 315 316 316 315 313 311 310 308 306 303 300 296 290 286
286 288 291 284 288 295 295 295 291 299 298 295 302 309 312 310 309 309 311 316 319 320 319 320 319 318 320 320 320 317 319 320 320 318 317 315 312 309 306 303 302 300 295 289
320 313 301 301 300 291 288 289 291 295 298 301 306 309 310 310 313 314 317 318 318 320 320 322 321 321 322 324 324 323 323 323 321 320 319 317 314 311 307 303 302 299 297 293
326 359 325 286 307 287 293 297 293 296 302 304 309 313 315 317 318 319 319 321 323 324 325 326 326 327 327 329 329 329 329 328 327 325 323 319 317 312 307 303 301 300 298 293
218 220 219 229 260 271 311 301 308 301 305 310 312 317 322 322 321 323 323 325 326 327 328 329 330 329 330 331 331 332 333 333 331 330 328 325 322 318 312 305 301 300 299 295